Location: Courcelles
(49.2596°N, 1.7419°E)
Time: 05:37:16
(UTC+00:00)

BREEZE-M DEB (TANK) - Pass Details

Date: 17 November 2025
Orbit: 284 x 18361 km, 52.5° (Epoch: 10 December)

Event Time Altitude Azimuth Distance (km) Brightness Sun altitude
Rises 17:49:28 0° 241° (WSW) 2,027 7.2 -16.2°
Reaches altitude 10° 17:50:46 10° 239° (WSW) 1,358 5.9 -16.4°
Maximum altitude 17:53:15 78° 154° (SSE) 570 2.8 -16.8°
Enters shadow 17:55:42 28° 70° (ENE) 1,509 4.4 -17.2°
